Tracking 19720 objects as of 26-Jun-2019
HD Live streaming from Space Station
objects crossing your sky now

METEOR 1-11 DEB

Track METEOR 1-11 DEB now!
10-day predictions


NORAD ID: 35427
Int'l Code: 1972-022C
Perigee: 738.1 km
Apogee: 762.0 km
Inclination: 81.2 °
Period: 99.7 minutes
Semi major axis: 7121 km
RCS: 0.0069 m2 (small)
Launch date: March 30, 1972
Source: Commonwealth of Independent States (former USSR) (CIS)
Launch site: PLESETSK MISSILE AND SPACE COMPLEX (PKMTR)

Note: This is SATELLITE DEBRIS
aabbcc
Your satellite tracking list
Your tracking list is empty




NASA's NSSDC Master Catalog

Two Line Element Set (TLE):
1 35427U 72022C   19078.64507365 +.00002569 +00000-0 +73564-3 0  9995
2 35427 081.2039 209.0927 0016776 226.7625 133.2165 14.44729893707165
Source of the keplerian elements: AFSPC